Weather in Bratoliubivka

Ukraine / Kirovohrad Region     48°12′23″N   32°57′07″E
temp.,
°C
wind,
m/s
gust,
m/s
humid.,
%
clouds,
%
prec.,
mm/h
press.,
hPa
HPBL,
m
19 september, sun
sun1900:00+17w4789100 0.3 1007390
03:00+15wnw3788100 0.3 1008297
06:00+14wnw349348 0.0 100875
09:00+16wnw34705 0.0 1009341
12:00+20w345063 0.0 10091161
15:00+22wsw463957 0.0 10082177
18:00+21wsw4741100 0.0 1007543
21:00+16ssw2564100 0.2 1008119
20 september, mon
mon2000:00+13nw697686 0.1 1009362
03:00+11wnw597196 0.1 1010497
06:00+10w487310 0.0 1010650
09:00+11w676373 0.0 10101086
12:00+11w676297 0.0 10111097
15:00+13w7857100 0.0 10111376
18:00+11w61070100 0.0 1012891
21:00+11w486991 0.0 1013857
21 september, tue
tue2100:00+9w487721 0.0 1014299
03:00+8wnw698031 0.0 1014530
06:00+8wnw7959100 0.0 10141353
09:00+9w6863100 0.0 1015954
12:00+10wnw7860100 0.0 10151193
15:00+7wnw71087100 0.1 1016809
18:00+7wnw61079100 0.1 1016991
21:00+7wnw61082100 0.1 10171049
22 september, wed
wed2200:00+7wnw61079100 0.1 10171169
03:00+6wnw6882100 0.1 1016987
06:00+6wnw5883100 0.1 1016836
09:00+6wnw5783100 0.1 1016930
12:00+7wnw5778100 0.1 1016975
15:00+7wnw5673100 0.1 1015956
18:00+7nw4680100 0.1 1015996
21:00+6nw4489100 0.1 1016648
23 september, thu
thu2300:00+6nw3585100 0.0 1015565
03:00+6nw3483100 0.0 1014562
06:00+6nw248399 0.1 1014432
09:00+7nw337689 0.1 1014717
12:00+8wnw3370100 0.1 1013850
15:00+8wnw336497 0.2 1013929
18:00+8nw446575 0.0 1014690
21:00+6nw358191 0.0 1014304